This demonstration page uses our WeatherBlox Daily Observations layout. Learn more.

Left ArrowRight Arrow

36.19886, -115.1175

Hourly Observations for June 26, 2021

Temp ( °F °C ) Dew Point ( °F °C ) Humidity (%) Winds ( mph kmh ) Pressure ( in mb ) Visibility ( mi km ) Precip ( " mm )
12:53 am 00:53 Clear 86 30 34 1.1 15 15 NW 7 11 29.73 1007 10 16 N/A
1:53 am 01:53 Clear 86 30 30 -1.1 13 13 N N/A 29.73 1007 10 16 N/A
2:53 am 02:53 Clear 84 28.9 36 2.2 18 18 SW 3 6 29.74 1007 10 16 N/A
3:53 am 03:53 Clear 82 27.8 34 1.1 18 18 W 5 7 29.74 1007 10 16 N/A
4:53 am 04:53 Clear 81 27.2 36 2.2 20 20 W 6 9 29.75 1008 10 16 N/A
5:53 am 05:53 Sunny 86 30 27 -2.8 12 12 NNW 6 9 29.76 1008 10 16 N/A
6:53 am 06:53 Sunny 88 31.1 27 -2.8 11 11 N 8 13 29.77 1008 10 16 N/A
7:53 am 07:53 Sunny 92 33.3 27 -2.8 10 10 NNW 13 20 29.78 1008 10 16 N/A
8:53 am 08:53 Sunny 96 35.6 29 -1.7 9 9 N 5 7 29.78 1008 10 16 N/A
9:53 am 09:53 Sunny 98 36.7 31 -0.6 9 9 NNE 6 9 29.77 1008 10 16 N/A
10:53 am 10:53 Sunny 100 37.8 31 -0.6 9 9 E 9 15 29.77 1008 10 16 N/A
11:53 am 11:53 Sunny 102 38.9 35 1.7 10 10 VRB 7 11 29.75 1008 10 16 N/A
12:53 pm 12:53 Sunny 105 40.6 37 2.8 10 10 ESE 14 22 29.73 1007 10 16 N/A
2:53 pm 14:53 Sunny 106 41.1 36 2.2 9 9 WSW 6 9 29.70 1006 10 16 N/A
3:53 pm 15:53 Sunny 107 41.7 37 2.8 9 9 N 8 13 29.68 1005 10 16 N/A
4:53 pm 16:53 Sunny 106 41.1 37 2.8 9 9 N N/A 29.66 1005 10 16 N/A
5:53 pm 17:53 Sunny 104 40 36 2.2 9 9 ESE 6 9 29.65 1004 10 16 N/A
6:53 pm 18:53 Sunny 103 39.4 36 2.2 10 10 ESE 3 6 29.65 1004 10 16 N/A
7:53 pm 19:53 Sunny 102 38.9 37 2.8 10 10 ENE 7 11 29.65 1004 10 16 N/A
8:53 pm 20:53 Clear 101 38.3 38 3.3 11 11 N N/A 29.66 1004 10 16 N/A
9:53 pm 21:53 Clear 100 37.8 39 3.9 12 12 N 3 6 29.67 1005 10 16 N/A
10:53 pm 22:53 Clear 94 34.4 41 5 16 16 NNW 6 9 29.68 1005 10 16 N/A
11:53 pm 23:53 Clear 94 34.4 42 5.6 17 17 N 5 7 29.69 1006 10 16 N/A

Powered by AerisWeather